Regional Weather Roundup
Issued by NWS Cleveland, OH

Home | Current Version | Previous Version | Text Only | Print | Product List | Glossary On
Versions: 1 2 3 4 5 6 7 8 9 10 11 12 13 14 15 16 17 18 19 20 21 22 23 24 25 26 27 28 29 30 31 32 33 34 35 36 37 38 39 40 41 42 43 44 45 46 47 48 49 50
000
ASUS41 KCLE 271310
RWRCLE
OHIO REGIONAL WEATHER ROUNDUP
NATIONAL WEATHER SERVICE CLEVELAND, OH
900 AM EDT FRI MAR 27 2015

NOTE: "FAIR" INDICATES FEW OR NO CLOUDS BELOW 12,000 FEET WITH NO
SIGNIFICANT WEATHER AND/OR OBSTRUCTIONS TO VISIBILITY.

OHZ001>008-015>018-024>027-034-035-043-044-271400-
   NORTHWEST OHIO

CITY           SKY/WX    TMP DP  RH WIND       PRES   REMARKS
DEFIANCE       SUNNY     27  15  61 N15       30.04R WCI  15
FINDLAY        CLOUDY    29  14  53 NW18G25   29.98R WCI  16
TOLEDO EXPRESS CLOUDY    23  12  62 N16       30.01R WCI  10
TOLEDO EXEC    CLOUDY    24  12  60 NW15      30.02R WCI  11
LIMA           CLOUDY    29  18  63 N15       29.98R WCI  18
$$

OHZ009>014-019>023-028>033-038-089-271400-
   NORTHEAST OHIO

CITY           SKY/WX    TMP DP  RH WIND       PRES   REMARKS
CLE-HOPKINS    LGT SNOW  26  20  77 N14       29.98R WCI  14
CLE-LAKEFRONT  CLOUDY    27  21  78 NW15      29.96R WCI  15
CUY CO. ARPT   NOT AVBL
LORAIN-ELYRIA  LGT SNOW  26  20  77 N14G24    29.97R WCI  14
ASHTABULA      LGT SNOW  26  22  84 NW12      29.92R FOG     WCI  16
AKRON-CANTON   LGT SNOW  30  24  78 N9        29.91R WCI  22
WOOSTER        CLOUDY    29  22  75 NW15G22   29.93R WCI  18
MANSFIELD      CLOUDY    28  18  66 NW17      29.93R WCI  16
YOUNGSTOWN     FLURRIES  28  24  85 NW13      29.88R WCI  17
$$

OHZ042-051>053-060>062-070>072-077>081-271400-
  SOUTHWEST OHIO

CITY           SKY/WX    TMP DP  RH WIND       PRES   REMARKS
CINC-COVINGTON MOSUNNY   33  24  69 N9        29.98F WCI  25
CINC-LUNKEN    SUNNY     34  24  67 N8        30.01F WCI  27
HAMILTON       SUNNY     33  25  72 NW8       30.01S WCI  26
DAYTON         MOSUNNY   32  25  75 NW13      29.99R WCI  22
WRIGHT-PAT AFB SUNNY     31  25  76 NW13      29.98R WCI  22
DAYTON GENERAL SUNNY     32  24  72 NW9       29.97S WCI  24
WILMINGTON     SUNNY     32  23  69 N9        29.96S WCI  24
$$

OHZ036-037-039>041-045>050-054>059-063>069-073>076-082>088-271400-
  CENTRAL AND SOUTHEAST OHIO

CITY           SKY/WX    TMP DP  RH WIND       PRES   REMARKS
COLUMBUS       PTSUNNY   31  24  75 N7        29.95R WCI  24
OSU AIRPORT    PTSUNNY   31  23  72 NW9       29.96R WCI  23
BOLTON FIELD   PTSUNNY   30  25  80 NW7       29.96S WCI  23
RICKENBACK AFB PTSUNNY   31  24  76 NW9       29.96S WCI  23
NEWARK         MOSUNNY   31  24  75 NW8       29.94R WCI  23
MARION         CLOUDY    30  20  66 N14       29.96R WCI  19
LANCASTER      PTSUNNY   32  24  72 NW9       29.95R WCI  24
ZANESVILLE     NOT AVBL
NEW PHILLY     CLOUDY    35  26  69 NW9       29.92R WCI  28
$$



USA.gov is the U.S. government's official web portal to all federal, state and local government web resources and services.